Vertical_Velocity
3 3 1 2 0 -2 2 -2 -1 -2 -5 3 -1 -3 2 -2 -5 -1 3 1 -2 -3 -5 -4 -3 -3 -2 -2 -2 -1 -1 -2 -3 -1 -2 -0 -1 -3 -5 -5 -2 1 10 4
1 1 -1 -1 0 -3 3 -2 -1 -3 -3 2 -2 -3 -2 0 -0 -4 -3 -2 -6 -2 0 0 7 -2 -1 -2 -3 -7 -3 -1 -4 -6 -2 -2 -2 -2 -2 -2 -6 -5 -1 2
-2 -1 -2 -0 -1 -0 -4 3 1 1 5 -10 0 -2 -3 -5 -4 -3 -1 1 1 2 -7 -1 10 3 4 5 5 8 4 -1 -2 -3 3 -1 -0 5 0 -1 0 -4 -3 0
1 0 -1 -3 -1 2 1 -0 -1 -1 1 -4 0 1 -3 -6 -1 1 3 4 1 2 4 6 -1 2 2 4 2 3 5 6 -2 -2 -1 -0 -1 -1 -1 -5 -4 -0 -1 2
-0 1 -1 -3 -1 3 4 1 2 3 1 -0 -5 -0 -5 -5 -2 -7 -7 -9 -9 -3 -1 -5 -6 -5 2 -0 -1 -1 -1 -1 -0 -8 -0 -3 1 -4 -4 -2 -2 -6 -2 -1
1 -0 1 -2 -6 1 3 3 -1 2 1 2 2 0 0 1 -0 3 1 1 -3 -4 -2 -3 -3 -2 -4 -3 -3 0 -2 -6 -5 -4 -0 -6 -8 -4 -0 2 -1 -4 6 3
-0 -1 2 3 -1 -3 -1 -1 0 -1 -0 3 -1 -6 -4 -1 2 -1 -5 -1 -2 -4 1 2 -2 -1 -0 -1 -3 -6 -4 -4 -1 -3 2 2 -2 -4 -7 -4 -2 -10 -8 -3
1 -1 -3 -3 0 0 1 1 1 -3 -1 4 0 1 5 5 3 2 2 2 -4 -3 -4 -2 2 -1 -0 -2 -4 -10 -4 -2 -1 -1 1 1 1 -0 0 -1 -3 1 -5 -15
-2 -3 0 -1 -1 -0 -0 -4 -1 -3 1 4 2 -0 -2 -8 -6 -6 -3 -4 -0 -1 4 7 4 1 -1 -1 -1 1 2 3 0 2 0 4 2 5 -1 0 2 6 8 7
2 0 -1 -2 -1 -3 -3 1 -5 -3 -5 -4 -2 4 4 -2 -0 1 -14 1 1 3 -1 -9 -8 -5 -2 -1 -3 -0 -0 -6 -6 -3 -2 1 2 4 11 2 -2 -5 -3 -3
1 4 -6 -1 -0 -2 -5 -5 -5 0 -2 -5 -6 3 -3 1 1 -1 -11 -5 -2 -0 3 1 -0 -3 -6 -5 -2 -3 -4 -5 -4 -4 -3 -1 -1 -1 -2 -6 -6 -5 -3 -2
1 -1 -0 2 -0 2 -0 -5 -4 -4 -0 5 -1 5 -3 -8 -1 -5 -2 -6 -1 -1 -2 -2 -4 -4 -1 -4 -5 -6 -6 -4 -5 -4 -0 -0 -1 0 3 -2 -1 -6 -5 -5
-3 1 2 -3 -3 0 1 -2 -7 -2 -3 7 -10 4 -3 2 -6 4 1 4 6 1 0 -0 -0 -2 -2 -1 -0 1 0 0 -1 -1 -7 -7 -4 -5 1 4 1 -2 -2 -1
-1 2 -4 -2 -1 -2 2 1 -3 -7 -5 -6 1 1 1 -4 -1 -0 -1 -2 -4 1 4 2 -0 -2 1 -3 -1 0 0 -2 -4 -1 -1 -1 -2 -0 -0 1 5 -1 0 -1
-0 6 2 -1 2 0 0 -4 -1 -2 1 -11 4 -6 -3 -4 0 -0 -1 -1 -0 -2 -5 -4 -7 -4 -3 2 2 -1 -1 0 -1 -1 1 -5 -1 -1 1 0 3 1 3 6
-1 -2 2 5 -5 -1 4 -3 1 1 -1 3 -1 3 -3 0 -6 -4 -7 -6 -3 1 0 1 5 1 2 -1 -2 2 -1 2 1 -3 -5 -4 -5 -5 -7 -9 -4 -1 -2 -6
2 -3 -6 6 -0 2 2 2 2 3 -0 -11 -5 -0 -1 5 -1 2 -6 3 -2 2 9 7 2 2 -0 2 1 -0 -0 -0 -1 1 -5 -2 -1 0 3 3 4 2 3 4
-1 -4 -2 1 1 5 -1 -7 -3 -5 4 -1 -3 -4 -7 -9 2 -0 2 -9 -2 5 -1 0 -3 2 1 -2 -0 1 -4 -3 -7 -0 2 1 0 0 -1 1 4 5 4 3
-1 -1 -4 -7 -2 1 24 1 -2 -6 25 0 2 4 5 -2 -0 18 3 9 -1 -0 -0 -3 -2 -4 1 -4 -4 -1 1 -6 -11 -3 1 1 2 4 0 0 0 -0 -1 0
-0 1 -1 -1 -7 -12 11 -5 -5 -9 6 -1 -7 1 2 6 -13 12 -1 5 5 -2 -6 -4 2 0 -2 -0 -6 0 2 -4 -5 -3 -1 1 -1 0 4 0 -1 1 1 -1
-1 -3 -3 -5 -9 6 -8 -0 -5 -9 -18 3 -5 -0 -2 -5 2 -9 -7 0 -3 -1 2 0 0 -6 -3 4 -7 -5 -6 -1 -0 -0 -1 -1 -4 -4 -1 3 2 -1 -1 -4
-1 -7 -0 -4 3 -10 2 -1 -7 -7 -1 -11 1 -3 -6 -0 2 -3 -5 1 4 2 1 6 3 2 -4 -5 -0 -5 -4 -4 -1 -1 -0 1 1 2 2 0 -0 -2 -3 -2
-5 -1 -9 -16 1 4 2 -10 4 -6 -13 -4 -2 -1 -2 1 -1 -7 -7 0 0 -3 -3 -2 -3 -1 5 0 -4 -2 -0 -0 3 1 1 2 1 1 -1 -0 -1 -2 -2 -2
4 5 -4 -19 40 2 -3 10 -7 1 -1 1 -3 -3 -1 -3 -3 0 3 5 2 1 -1 -0 0 -8 5 5 -2 1 1 3 3 0 2 -1 -0 1 -1 -3 -3 -2 -1 -3
15 -2 -2 2 10 -11 18 -4 -3 8 2 2 3 -2 0 1 5 -0 2 5 4 -2 0 -5 -2 7 -8 -10 -2 -2 -2 -1 1 -1 1 -2 -4 2 2 -4 -2 -2 -4 -2
10 12 -2 -18 3 -21 0 -2 2 -3 0 -2 -4 1 2 -1 0 -2 2 1 1 -3 0 1 -1 3 2 -2 -1 1 1 0 2 0 -1 -2 -2 -0 -2 -0 -1 -4 -2 -3
Height
5837 5836 5834 5833 5831 5829 5829 5828 5827 5825 5823 5824 5822 5820 5820 5817 5815 5814 5812 5809 5806 5804 5801 5799 5796 5794 5791 5787 5782 5777 5771 5767 5761 5756 5751 5746 5741 5736 5731 5723 5717 5712 5709 5704
5836 5834 5832 5831 5829 5828 5829 5827 5826 5824 5822 5822 5821 5819 5818 5817 5813 5810 5807 5804 5801 5799 5797 5795 5794 5790 5785 5781 5776 5770 5762 5756 5750 5746 5741 5735 5730 5725 5719 5712 5705 5698 5692 5687
5834 5833 5831 5831 5829 5828 5826 5825 5824 5823 5821 5818 5818 5817 5815 5812 5810 5807 5805 5803 5800 5796 5793 5790 5789 5784 5780 5775 5770 5764 5756 5748 5741 5735 5729 5723 5718 5713 5707 5699 5693 5686 5680 5674
5833 5831 5829 5827 5826 5826 5823 5822 5820 5819 5818 5815 5814 5813 5809 5805 5803 5801 5798 5797 5794 5791 5788 5785 5779 5775 5771 5768 5762 5756 5748 5741 5732 5725 5719 5711 5704 5696 5689 5683 5676 5671 5664 5659
5830 5828 5826 5823 5821 5821 5821 5818 5816 5815 5813 5811 5808 5808 5803 5797 5795 5793 5789 5786 5783 5780 5777 5773 5768 5763 5759 5755 5748 5740 5733 5725 5717 5712 5707 5701 5693 5687 5679 5671 5664 5657 5650 5643
5826 5825 5823 5820 5817 5816 5815 5815 5812 5810 5809 5808 5804 5802 5794 5789 5785 5780 5777 5774 5770 5767 5763 5759 5756 5752 5746 5741 5735 5730 5722 5713 5706 5699 5690 5683 5674 5664 5656 5650 5644 5638 5633 5625
5821 5822 5819 5817 5815 5812 5811 5810 5809 5806 5805 5802 5798 5797 5789 5784 5779 5776 5771 5764 5759 5756 5753 5749 5746 5741 5735 5728 5722 5712 5704 5696 5688 5678 5670 5663 5658 5649 5642 5635 5628 5620 5613 5607
5815 5816 5815 5812 5811 5808 5806 5805 5804 5800 5799 5800 5797 5793 5787 5781 5776 5771 5765 5758 5751 5750 5747 5743 5739 5731 5722 5713 5704 5696 5690 5681 5673 5667 5660 5653 5645 5636 5628 5621 5613 5606 5594 5587
5810 5808 5809 5807 5806 5805 5802 5800 5799 5796 5792 5790 5790 5790 5782 5777 5772 5765 5760 5753 5749 5746 5743 5738 5730 5720 5711 5701 5693 5684 5679 5672 5664 5658 5650 5643 5633 5624 5613 5605 5596 5588 5579 5569
5807 5806 5803 5802 5801 5800 5798 5797 5791 5786 5782 5778 5777 5780 5775 5771 5765 5760 5750 5745 5742 5737 5732 5723 5715 5706 5699 5693 5685 5677 5668 5659 5651 5642 5633 5625 5617 5608 5597 5585 5575 5567 5560 5553
5803 5803 5801 5799 5797 5796 5795 5790 5784 5779 5776 5771 5764 5770 5767 5761 5751 5743 5736 5734 5730 5725 5718 5710 5702 5693 5684 5675 5668 5661 5655 5647 5639 5630 5621 5611 5601 5590 5578 5566 5557 5548 5541 5532
5799 5798 5795 5792 5789 5788 5788 5785 5779 5771 5767 5765 5755 5756 5756 5749 5741 5733 5731 5726 5720 5713 5706 5697 5690 5682 5675 5667 5659 5652 5643 5633 5624 5615 5605 5594 5584 5573 5561 5549 5538 5527 5518 5509
5794 5794 5792 5786 5784 5781 5781 5781 5771 5762 5757 5754 5748 5746 5743 5737 5729 5727 5721 5715 5708 5701 5693 5687 5680 5673 5666 5657 5649 5639 5629 5619 5608 5597 5586 5576 5565 5555 5544 5531 5518 5506 5497 5488
5788 5786 5785 5783 5778 5771 5777 5776 5768 5759 5755 5747 5748 5736 5734 5725 5721 5714 5709 5703 5697 5691 5684 5676 5667 5659 5651 5641 5631 5621 5610 5599 5589 5577 5565 5553 5542 5531 5521 5510 5499 5488 5480 5473
5782 5780 5778 5776 5771 5766 5767 5760 5755 5751 5749 5740 5737 5732 5726 5719 5713 5705 5699 5694 5688 5679 5670 5663 5654 5643 5633 5625 5613 5602 5590 5578 5565 5554 5542 5531 5520 5509 5499 5489 5480 5472 5464 5459
5772 5770 5764 5770 5762 5756 5758 5751 5745 5741 5735 5729 5723 5719 5713 5707 5700 5693 5687 5680 5673 5664 5654 5647 5638 5627 5618 5606 5595 5583 5570 5559 5546 5534 5522 5511 5499 5488 5477 5468 5462 5456 5449 5443
5767 5760 5755 5754 5752 5746 5752 5743 5737 5731 5728 5721 5715 5710 5705 5698 5688 5680 5675 5667 5657 5648 5643 5633 5621 5611 5600 5589 5576 5563 5551 5538 5527 5514 5501 5490 5480 5471 5464 5457 5449 5443 5437 5432
5759 5753 5748 5742 5739 5734 5741 5730 5725 5719 5714 5709 5702 5695 5689 5684 5677 5668 5660 5648 5640 5635 5628 5618 5607 5596 5582 5569 5556 5543 5531 5518 5507 5497 5485 5473 5463 5455 5449 5443 5437 5431 5425 5420
5749 5744 5738 5735 5727 5723 5729 5717 5712 5703 5700 5694 5690 5685 5680 5672 5666 5658 5647 5637 5627 5619 5608 5596 5585 5574 5563 5550 5538 5527 5514 5502 5491 5479 5467 5457 5449 5442 5437 5432 5425 5418 5412 5406
5740 5736 5732 5726 5718 5712 5715 5706 5699 5691 5689 5682 5676 5671 5663 5655 5647 5642 5631 5620 5610 5597 5588 5578 5567 5555 5543 5531 5520 5509 5498 5486 5474 5460 5450 5441 5434 5428 5422 5416 5410 5405 5399 5392
5730 5725 5723 5717 5712 5705 5705 5696 5687 5681 5677 5667 5661 5655 5647 5639 5629 5621 5612 5605 5595 5586 5575 5563 5550 5539 5528 5516 5502 5491 5479 5469 5455 5444 5436 5428 5421 5415 5409 5404 5397 5391 5384 5377
5719 5714 5710 5705 5696 5693 5686 5678 5674 5668 5660 5655 5650 5641 5633 5625 5617 5607 5597 5587 5579 5570 5559 5547 5534 5523 5511 5500 5488 5475 5462 5449 5440 5433 5425 5417 5410 5404 5397 5391 5383 5376 5369 5363
5706 5705 5701 5699 5687 5683 5675 5668 5662 5653 5646 5641 5634 5627 5619 5611 5602 5591 5583 5575 5563 5551 5540 5528 5517 5507 5497 5483 5472 5459 5446 5437 5429 5421 5413 5406 5398 5391 5384 5376 5369 5361 5354 5348
5691 5692 5689 5677 5683 5671 5661 5657 5649 5644 5637 5630 5622 5614 5604 5596 5586 5578 5566 5554 5543 5532 5520 5510 5499 5489 5480 5468 5455 5443 5433 5425 5417 5410 5402 5394 5386 5378 5369 5361 5354 5345 5338 5332
5682 5679 5672 5666 5665 5655 5651 5643 5637 5630 5622 5613 5604 5595 5586 5577 5568 5559 5549 5537 5526 5514 5503 5493 5483 5471 5457 5448 5439 5431 5422 5414 5406 5398 5390 5381 5373 5364 5355 5346 5337 5329 5321 5315
5675 5667 5659 5652 5648 5638 5638 5629 5623 5614 5606 5596 5587 5580 5570 5560 5550 5540 5530 5519 5509 5498 5489 5478 5466 5456 5444 5435 5428 5420 5412 5404 5396 5387 5378 5369 5359 5350 5341 5331 5322 5313 5306 5301